Location: Unspecified
(0.0000°N, 0.0000°E)
Time: 05:52:33
(UTC+00:00)

Vanguard 2 Rocket - Pass Details

Date: 11 October 2023
Orbit: 552 x 3312 km, 32.9° (Epoch: 06 December)

Event Time Altitude Azimuth Distance (km) Brightness Sun altitude
Rises 07:08:01 0° 302° (WNW) 4,028 9.7 20.1°
Reaches altitude 10° 07:13:08 10° 332° (NNW) 3,652 9.7 21.4°
Maximum altitude 07:16:32 12° 353° (N) 3,863 10.0 22.2°
Drops below altitude 10° 07:20:32 10° 13° (NNE) 4,461 10.6 23.2°
Sets 07:29:05 0° 39° (NE) 6,260 11.6 25.4°
